TITAN 3C TRANSTAGE DEB, 21692

Orbit data source: Space-Track

TITAN 3C TRANSTAGE DEB, 21692 is space debris in HEO originally from a launch on Tue, 21 Dec 1965 UTC launched from the Air Force Eastern Test Range (AFETR). Debris objects in space refer to the collection of defunct objects orbiting the Earth. Examples of debris include non-operational satellites, rocket bodies, and fragments generated from explosions, collisions, or faulty payload assembly.

Loading next visibility...
Identifier
21692, 1965-108AF
Orbit
HEO
Country
Flag of USUS
Related business
Manufacturer
Unknown
Mission
Spacecraft
Bus & Motor
Unknown
Mass
Unknown
Launch date (UTC)
1965-12-21 (61 years ago)
Launch vehicle
Unknown
Launch site
Air Force Eastern Test Range (AFETR)
Object type
Payload
Rocket body
Debris
Shape & HBR
Unknown shape, 0.1 m
Radar Cross Section
Medium (>0.1 m² and <1 m²)

Expand to show TLE details & history
Last TLE update: 2 days ago

TLE from 2 days ago
0 TITAN 3C TRANSTAGE DEB
1 21692U 65108AF  26205.26941337  .00000184  00000-0  11288-2 0  9995
2 21692  27.5989 145.1699 6150960 186.7755 354.3792  3.60870774165831
Epoch: 2026-07-24T06:27Z
TLE epoch observation values (Epoch: 2026-07-24T06:27:57.315Z)
Latitude
9.92745°
Longitude
-93.27007°
Altitude
862.358 km
Speed
9.376 km/s
True Right ascension
20h 22m 52s
True Declination
9° 52' 12"
Sunlit
Object was in full shadow at epoch
Visualization orbit readout
Latitude
Unknown
Longitude
Unknown
Altitude
Unknown
Speed
Unknown
Apparent Right ascension
Unknown
Apparent Declination
Unknown
Sunlit
N/A
Visualization observer readout
Local Sidereal Time
14:16:34
Azimuth
Unknown
Elevation
Unknown
Doppler factor
Unknown
Orbital elements
Apogee altitude
22,625.206 km
Perigee altitude
533.838 km
Semi-major axis
17,957.659 km
Eccentricity
0.6151
Inclination
27.5989°
RAAN
145.1699°
Arg. of periapsis
186.7755°
True anomaly
331.05406°
Mean anomaly
354.3792°
Eccentric anomaly
345.63654°
Mean motion
0.90192 °/min
Orbital period
399.15 mins
BSTAR
0.0011288
Loading maneuver chart data...
Computing Atmospheric mass density...

Documentation

Showing up to 5 results
|